Location: Sternwarte Stuttgart
(48.7670°N, 9.1830°E)
Time: 05:33:24
(UTC+02:00)

Daily predictions for brighter satellites

Satellite Brightness Start Highest point End
(mag) Time Altitude Azimuth Time Altitude Azimuth Time Altitude Azimuth
CENTAUR R/B 4.0 03:23:56 42° E 03:23:56 42° E 03:30:00 10° ESE
ATLAS 2AS CENTAUR R/B 3.7 03:50:45 47° ESE 03:50:45 47° ESE 03:57:44 10° NE
Cosmos 2333 Rocket 4.0 03:57:57 28° NE 03:57:57 28° NE 04:00:39 10° NE
Cosmos 2219 Rocket 3.8 04:06:06 29° NE 04:06:06 29° NE 04:08:49 10° NNE
SL-16 R/B 4.4 04:07:54 16° N 04:07:54 16° N 04:09:22 10° NNE
ADEOS II 4.1 04:13:18 10° NNE 04:15:06 22° NNE 04:15:06 22° NNE
Cosmos 2237 Rocket 3.5 04:20:04 36° E 04:20:04 36° E 04:24:43 10° NE
USA 267 4.0 04:16:16 10° ENE 04:22:21 43° SE 04:22:21 43° SE
Cosmos 2322 Rocket 4.3 04:34:52 16° N 04:34:52 16° N 04:36:36 10° N
BREEZE-M R/B 4.4 04:35:21 53° E 04:35:21 53° E 04:41:53 10° ENE
Cosmos 1980 4.3 04:38:11 51° E 04:38:11 51° E 04:43:10 10° NE
Cosmos 2360 Rocket 3.9 04:41:27 22° N 04:41:27 22° N 04:43:56 10° NNE
NOSS 3-2 (C) 4.5 04:44:12 47° S 04:44:12 47° S 04:50:05 10° SSE
IDEFIX/ARIANE 42P 3.7 04:37:36 10° NNE 04:42:32 40° E 04:43:36 36° SE
COSMOS 2428 3.5 04:47:56 42° N 04:47:56 42° N 04:51:45 10° NNE
Cosmos 407 Rocket 4.2 04:47:00 49° E 04:47:00 49° E 04:51:22 10° NNE
Cosmos 1943 Rocket 4.4 04:44:16 10° N 04:48:34 21° NE 04:52:51 10° E
COSMOS 2455 3.8 04:57:25 34° NNW 04:57:25 34° NNW 05:01:47 10° NNE
USA 234 3.3 04:51:21 10° ESE 04:57:53 78° NNE 04:59:22 56° NW
NOSS 3-4 (A) 3.4 05:00:00 70° SSE 05:00:28 74° SE 05:06:53 10° NE
NOSS 3-4 (C) 3.4 05:00:03 69° SSE 05:00:34 73° SE 05:07:00 10° NE
Cosmos 44 Rocket 3.8 05:03:22 54° ENE 05:03:22 54° ENE 05:07:34 10° SE
ATLAS 3B R/B 2.6 05:06:13 64° SSW 05:06:13 64° SSW 05:12:24 10° SSE
Gblst 52 Del rocket 4.0 05:07:22 83° E 05:07:22 83° E 05:12:54 10° ESE
Cosmos 614 Rocket 3.9 05:12:10 83° ENE 05:12:10 83° ENE 05:17:16 10° NNE
CENTAUR R/B 3.1 05:11:14 53° W 05:12:48 61° WSW 05:21:18 10° SSE
ATLAS 5 CENTAUR R/B 4.4 05:11:18 23° NNW 05:14:29 40° NNE 05:30:38 10° E
SL-16 R/B 3.4 05:11:16 14° S 05:15:42 39° ESE 05:20:57 10° NE
ARIANE 5 R/B 4.3 05:11:26 10° N 05:13:03 19° NNW 05:13:03 19° NNW
H-2A R/B 3.6 05:13:05 10° NNE 05:17:09 43° E 05:19:16 25° SSE
Cosmos 1140 Rocket 3.7 05:17:26 51° SSE 05:18:35 68° ESE 05:23:43 10° NNE
Cosmos 2074 Rocket 3.9 05:15:53 30° S 05:19:10 86° E 05:25:25 10° N
Cosmos 1954 Rocket 4.5 05:22:40 27° S 05:25:24 58° ESE 05:30:31 10° NNE
USA 32 3.9 05:26:06 74° WSW 05:26:22 76° W 05:31:40 10° N
Cosmos 2297 3.7 05:23:20 18° NNW 05:27:42 82° ENE 05:33:27 10° SSE
ERBS 4.2 05:34:55 25° NNE 05:34:55 25° NNE 05:36:48 10° NE
ADEOS 3.4 05:29:48 10° NNE 05:35:03 82° WNW 05:36:55 41° SSW
CZ-2C R/B 3.4 05:30:06 10° NNE 05:35:10 49° E 05:40:07 10° S
Cosmos 1606 Rocket 3.4 05:31:11 10° N 05:35:33 88° E 05:39:52 10° S
MSX 3.9 05:31:22 10° NNE 05:37:08 77° ESE 05:42:52 10° S
BREEZE-M DEB (TANK) 2.2 05:38:43 87° NNE 05:38:43 87° NNE 05:41:17 10° E
Cosmos 2333 Rocket 3.2 05:39:58 30° NW 05:39:58 30° NW 05:44:43 10° NNE
ATLAS 2AS CENTAUR R/B 3.2 05:38:13 40° W 05:41:08 60° NW 05:49:03 10° NE
RESURS DK-1 2.5 05:43:35 51° S 05:44:31 73° ESE 05:48:40 10° NNE
Cosmos 389 Rocket 4.3 05:48:53 21° N 05:48:53 21° N 05:50:14 10° N
Cosmos 2219 Rocket 3.3 05:47:50 27° NW 05:47:50 27° NW 05:52:26 10° NNE
Spot 2 4.5 05:45:33 10° N 05:48:38 42° NNW 05:48:38 42° NNW
Meteor 1-4 Rocket 3.1 05:50:31 43° N 05:50:31 43° N 05:53:00 10° N
Cosmos 1023 Rocket 4.4 05:49:31 43° SW 05:51:03 66° WNW 05:56:11 10° NNE
GP-B 3.8 05:49:27 10° SSE 05:53:46 55° E 05:58:08 10° N
In-Cosmos 22 4.3 05:50:20 10° S 05:55:41 73° E 06:01:13 10° NNE
ADEOS II 4.0 05:54:23 10° NNW 05:56:02 15° NW 05:56:02 15° NW
Cosmos 2228 2.9 05:55:17 10° NNW 05:59:29 61° W 06:03:39 10° S
Cosmos 1726 2.0 05:58:35 10° N 06:02:16 89° ENE 06:05:58 10° S
Cosmos 2237 Rocket 2.6 06:01:56 35° W 06:03:32 43° NW 06:08:59 10° NNE
USA 267 3.2 05:59:12 10° NE 06:05:45 75° NNW 06:09:42 26° WSW
Cosmos 2344 4.4 05:57:13 10° NW 06:06:51 84° SW 06:20:21 10° SE
Cosmos 1763 Rocket 3.9 06:02:02 10° NNW 06:07:12 63° ENE 06:12:15 10° SE
NOSS 0 Rocket 4.5 06:06:32 31° W 06:08:33 39° NW 06:14:20 10° NNE
Cosmos 1437 Rocket 2.7 06:06:20 10° S 06:10:07 79° E 06:13:56 10° NNE
PSLV R/B 4.1 06:07:29 10° N 06:11:14 34° WNW 06:11:14 34° WNW
COSMO-SKYMED 1 3.2 06:07:53 10° SSE 06:12:08 57° ENE 06:16:24 10° N
CZ-4B R/B 3.9 06:08:35 10° NNE 06:12:39 85° ESE 06:16:53 10° SSW
Cosmos 1726 Rocket 3.7 06:10:37 10° NNW 06:14:44 45° W 06:18:51 10° SSW
Cosmos 2369 Rocket 2.7 06:09:16 10° NNW 06:14:49 60° ENE 06:20:20 10° SE
Okean 1-7 Rocket 3.5 06:11:00 10° SSW 06:15:27 70° W 06:20:00 10° N
Cosmos 1908 3.2 06:12:49 10° N 06:16:40 85° ENE 06:20:30 10° S
Cosmos 1980 4.5 06:20:05 26° W 06:22:02 32° NW 06:27:05 10° NNE
IDEFIX/ARIANE 42P 3.2 06:17:23 10° N 06:22:03 33° WNW 06:24:25 23° WSW
Meteor 2-5 Rocket 4.0 06:16:33 10° S 06:22:22 78° E 06:28:20 10° NNE
Cosmos 676 Rocket 4.2 06:19:09 20° SW 06:22:38 49° WNW 06:27:43 10° NNE
PSLV R/B 4.1 06:19:57 10° NNE 06:23:39 63° ESE 06:27:18 10° S
Cosmos 2360 Rocket 4.3 06:24:36 10° NNW 06:24:56 10° NNW 06:25:16 10° NNW
Cosmos 2154 Rocket 4.1 06:22:23 10° SSW 06:28:23 51° WNW 06:34:27 10° N
Cosmos 407 Rocket 4.5 06:27:15 23° W 06:28:41 27° NW 06:33:01 10° N
COSMOS 2428 4.3 06:29:57 15° NW 06:31:31 17° NW 06:35:09 10° N
Iridium 51 4.1 06:27:55 10° N 06:31:39 79° E 06:35:09 10° S
Cosmos 1943 Rocket 2.2 06:27:25 10° NNW 06:33:08 89° ENE 06:38:49 10° SSE
Cosmos 1707 4.1 06:33:58 20° WNW 06:33:58 20° WNW 06:36:30 10° NNW
SKYMED 3 4.5 06:31:44 10° SSE 06:36:05 84° WSW 06:40:27 10° NNW
Cosmos 1602 Rocket 4.2 06:32:13 10° S 06:36:27 57° E 06:40:42 10° NNE
Cosmos 1674 2.5 06:32:46 10° SSW 06:36:28 69° W 06:40:12 10° N
ASTEX 1 4.4 06:32:07 10° SSE 06:36:48 49° ENE 06:41:33 10° N
Meteor 1-31 Rocket 2.9 06:35:25 10° N 06:39:06 46° WNW 06:42:44 10° SW
USA 234 3.7 06:35:08 10° SSE 06:41:14 41° SW 06:46:43 13° WNW
Cosmos 1727 Rocket 4.4 06:35:29 10° N 06:41:43 69° ENE 06:47:58 10° SSE
Cosmos 44 Rocket 4.3 06:42:09 18° WNW 06:44:09 24° WSW 06:47:55 10° SSW
Cosmos 2058 Rocket 3.6 06:40:33 10° NNW 06:44:34 35° W 06:48:37 10° SSW
Okean O Rocket 2.4 06:44:40 10° NNE 06:49:01 55° E 06:53:18 10° S
Cosmos 1626 3.3 06:47:02 10° S 06:50:36 48° E 06:54:12 10° NNE
NOSS 3-4 (A) 4.3 06:47:27 15° W 06:51:56 36° NNW 06:57:59 10° NE
NOSS 3-4 (C) 4.3 06:47:31 15° W 06:52:01 36° NNW 06:58:06 10° NE
H-2A R/B 3.7 06:49:05 10° NNW 06:52:25 23° WNW 06:55:49 10° WSW
Cosmos 1484 Rocket 2.7 06:50:27 10° N 06:54:15 69° WNW 06:58:05 10° SSW
ATLAS 3B R/B 4.1 06:53:35 13° W 06:55:08 14° WSW 06:58:32 10° SW
CZ-4B R/B 3.5 06:53:56 10° N 06:57:31 32° WNW 07:00:55 10° SW
Cosmos 1603 4.0 06:54:03 10° SSW 06:59:39 75° ESE 07:05:20 10° NNE
SL-16 R/B 2.7 06:54:29 10° WSW 06:59:49 41° NW 07:05:12 10° NNE
Cosmos 2341 Rocket 4.2 06:53:58 10° SSW 06:59:58 49° WNW 07:06:01 10° N
SKYMED 2 3.8 06:56:02 10° S 07:00:14 48° W 07:04:28 10° NNW
Cosmos 2263 4.2 06:55:26 10° NNW 07:01:11 87° WSW 07:06:55 10° SSE
Cosmos 1850 Rocket 4.1 06:56:28 10° SW 07:01:32 56° WNW 07:06:39 10° NNE
CENTAUR R/B 4.5 06:58:32 11° WNW 07:02:19 16° WSW 07:06:56 10° SW
Cosmos 1300 2.6 07:00:21 10° N 07:04:11 84° W 07:07:59 10° S
Meteor 1-24 Rocket 3.9 07:03:52 10° SSW 07:09:39 65° WNW 07:15:39 10° N
ERBS 4.2 07:08:12 10° NW 07:10:47 20° N 07:13:23 10° NE
Cosmos 1959 Rocket 4.5 07:05:21 10° SSW 07:11:26 66° WNW 07:17:38 10° N
CZ-2C R/B 3.4 07:08:47 10° N 07:13:07 28° WNW 07:17:25 10° WSW
SL-8 Rocket 4.1 07:08:43 10° SSW 07:14:44 52° WNW 07:20:45 10° N
USA 116 3.9 07:16:13 10° S 07:19:31 37° W 07:22:35 10° NNW
RESURS DK-1 4.0 07:20:12 10° W 07:23:03 18° NW 07:25:55 10° N
Cosmos 2366 rocket 4.2 07:19:19 10° SSW 07:25:33 56° WNW 07:31:49 10° N
Cosmos 2333 Rocket 4.3 07:25:15 10° NNW 07:26:00 10° NNW 07:26:45 10° NNW
